N8AMF Weather Reports


time (UTC)temp
C
wind
direction
speed
KPH
gust
KPH
rain 1hr
cm
rain 24hr
cm
rain mn
cm
humidity
%
barometer
mb
20260903073416 23 179 0.0 3.2 0.00 0.00 0.00 84 1013.9
20260903072912 22 230 0.0 4.8 0.00 0.00 0.00 84 1014.0
20260903072408 22 246 0.0 3.2 0.00 0.00 0.00 84 1014.0
20260903071905 22 157 1.6 3.2 0.00 0.00 0.00 84 1014.1
20260903071401 23 32 0.0 0.0 0.00 0.00 0.00 84 1013.8
20260903070856 23 215 0.0 3.2 0.00 0.00 0.00 84 1013.6
20260903070351 23 196 0.0 4.8 0.00 0.00 0.00 84 1013.3
20260903065846 23 154 0.0 3.2 0.00 0.00 0.00 84 1013.5
20260903065345 22 210 0.0 3.2 0.00 0.00 0.00 85 1013.8
20260903064844 22 229 1.6 4.8 0.00 0.00 0.00 85 1013.9
20260903064340 23 187 0.0 1.6 0.00 0.00 0.00 85 1014.1
20260903063836 23 235 0.0 1.6 0.00 0.00 0.00 84 1014.1
20260903063325 23 205 0.0 0.0 0.00 0.00 0.00 83 1014.1
20260903062820 23 217 0.0 0.0 0.00 0.00 0.00 82 1014.3
20260903062320 23 217 0.0 0.0 0.00 0.00 0.00 81 1014.3
20260903061817 23 230 0.0 1.6 0.00 0.00 0.00 80 1014.4
20260903061310 24 230 0.0 1.6 0.00 0.00 0.00 79 1014.6
20260903060806 24 333 0.0 8.0 0.00 0.00 0.00 78 1014.5
20260903060305 24 356 3.2 4.8 0.00 0.00 0.00 78 1014.6
20260903055803 24 314 1.6 4.8 0.00 0.00 0.00 78 1014.6
20260903055306 24 312 4.8 8.0 0.00 0.00 0.00 79 1014.8
20260903054756 25 190 0.0 4.8 0.00 0.00 0.00 79 1014.9
20260903054251 24 331 6.4 8.0 0.00 0.00 0.00 80 1014.9
20260903053748 25 329 4.8 6.4 0.00 0.00 0.00 81 1015.0
20260903053248 25 344 11.3 17.7 0.00 0.00 0.00 80 1015.2
20260903052738 25 356 6.4 17.7 0.00 0.00 0.00 79 1015.1
20260903052234 26 344 8.0 24.1 0.00 0.00 0.00 78 1014.9
20260903051728 27 10 6.4 24.1 0.00 0.00 0.00 79 1014.7
20260903051225 27 240 0.0 6.4 0.00 0.00 0.00 81 1013.6
20260903050720 27 221 3.2 3.2 0.00 0.00 0.00 81 1013.5
20260903050219 27 156 0.0 6.4 0.00 0.00 0.00 80 1013.5
20260903045719 27 172 1.6 4.8 0.00 0.00 0.00 80 1013.2
20260903045215 27 222 1.6 6.4 0.00 0.00 0.00 80 1013.2
20260903044711 27 222 4.8 6.4 0.00 0.00 0.00 80 1013.2
20260903044206 27 234 0.0 9.7 0.00 0.00 0.00 80 1012.9
20260903043703 27 259 3.2 4.8 0.00 0.00 0.00 80 1013.0
20260903043202 27 225 3.2 4.8 0.00 0.00 0.00 80 1013.1
20260903042702 27 236 1.6 4.8 0.00 0.00 0.00 80 1012.9
20260903042157 27 228 0.0 3.2 0.00 0.00 0.00 80 1012.8
20260903041654 27 231 0.0 4.8 0.00 0.00 0.00 80 1013.0
20260903041149 27 218 1.6 4.8 0.00 0.00 0.00 80 1012.8
20260903040648 27 238 4.8 11.3 0.00 0.00 0.00 80 1012.8
20260903040144 27 233 1.6 4.8 0.00 0.00 0.00 81 1012.6
20260903035640 27 202 0.0 4.8 0.00 0.00 0.00 81 1012.3
20260903035136 26 321 0.0 3.2 0.00 0.00 0.00 82 1012.5
20260903034630 26 187 0.0 3.2 0.00 0.00 0.00 82 1012.4
20260903034125 26 125 1.6 4.8 0.00 0.00 0.00 81 1012.3
20260903033621 26 195 0.0 4.8 0.00 0.00 0.00 81 1012.1
20260903033120 26 209 1.6 3.2 0.00 0.00 0.00 82 1012.2
20260903032616 26 164 0.0 4.8 0.00 0.00 0.00 81 1011.9
20260903032111 27 217 3.2 4.8 0.00 0.00 0.00 81 1012.0
20260903031606 27 141 3.2 4.8 0.00 0.00 0.00 80 1011.8
20260903031101 27 139 4.8 11.3 0.00 0.00 0.00 80 1012.0
20260903030556 27 205 0.0 3.2 0.00 0.00 0.00 80 1012.0
20260903030052 27 127 1.6 4.8 0.00 0.00 0.00 80 1012.4
20260903025547 27 155 3.2 6.4 0.00 0.00 0.00 80 1012.3
20260903025043 27 139 0.0 3.2 0.00 0.00 0.00 80 1012.6
20260903024543 27 195 0.0 6.4 0.00 0.00 0.00 80 1012.6
20260903024037 27 227 0.0 3.2 0.00 0.00 0.00 80 1012.7
20260903023533 27 217 0.0 6.4 0.00 0.00 0.00 79 1012.9
20260903023028 27 173 0.0 4.8 0.00 0.00 0.00 79 1012.8
20260903022527 27 160 0.0 3.2 0.00 0.00 0.00 79 1012.9
20260903022026 27 230 0.0 3.2 0.00 0.00 0.00 79 1013.0
20260903021521 27 186 0.0 3.2 0.00 0.00 0.00 79 1012.9
20260903021016 27 217 0.0 4.8 0.00 0.00 0.00 79 1012.8
20260903020512 27 215 0.0 3.2 0.00 0.00 0.00 79 1013.0
20260903020011 27 224 0.0 1.6 0.00 0.00 0.00 79 1013.0
20260903015507 27 229 0.0 3.2 0.00 0.00 0.00 79 1013.0
20260903015002 27 157 0.0 3.2 0.00 0.00 0.00 79 1013.0
20260903014502 27 235 0.0 1.6 0.00 0.00 0.00 78 1013.1
20260903013956 27 230 0.0 3.2 0.00 0.00 0.00 78 1013.2
20260903013451 27 230 0.0 3.2 0.00 0.00 0.00 78 1013.2
20260903012950 27 287 0.0 3.2 0.00 0.00 0.00 78 1013.2
20260903012450 27 287 0.0 4.8 0.00 0.00 0.00 78 1013.3
20260903011948 27 242 0.0 4.8 0.00 0.00 0.00 78 1013.2
20260903011443 27 220 0.0 3.2 0.00 0.00 0.00 79 1013.0
20260903010939 27 230 0.0 4.8 0.00 0.00 0.00 79 1012.8
20260903010434 27 230 0.0 3.2 0.00 0.00 0.00 79 1012.9
20260903005931 27 180 0.0 4.8 0.00 0.00 0.00 79 1012.8
20260903005426 27 201 0.0 4.8 0.00 0.00 0.00 79 1012.9
20260903004923 27 224 0.0 1.6 0.00 0.00 0.00 79 1012.8
20260903004418 27 212 0.0 3.2 0.00 0.00 0.00 79 1012.8
20260903003913 28 205 0.0 1.6 0.00 0.00 0.00 79 1012.8
20260903003408 28 205 0.0 0.0 0.00 0.00 0.00 78 1012.8
20260903002908 28 230 0.0 1.6 0.00 0.00 0.00 78 1013.0
20260903002403 28 242 0.0 0.0 0.00 0.00 0.00 77 1012.8
20260903001902 28 224 0.0 0.0 0.00 0.00 0.00 77 1012.9
20260903001357 28 230 0.0 0.0 0.00 0.00 0.00 76 1012.7
20260903000857 28 230 0.0 1.6 0.00 0.00 0.00 76 1012.9
20260903000355 28 242 0.0 0.0 0.00 0.00 0.00 75 1013.0
20260902235851 29 229 0.0 0.0 0.00 0.00 0.00 74 1012.9
20260902235346 29 229 0.0 1.6 0.00 0.00 0.00 73 1012.9
20260902234845 29 205 0.0 0.0 0.00 0.00 0.00 73 1013.0
20260902234345 30 269 0.0 1.6 0.00 0.00 0.00 72 1012.9
20260902233844 30 206 0.0 3.2 0.00 0.00 0.00 71 1012.9
20260902233340 30 157 0.0 3.2 0.00 0.00 0.00 71 1013.1
20260902232838 30 205 0.0 4.8 0.00 0.00 0.00 70 1012.9
20260902232332 30 206 3.2 3.2 0.00 0.00 0.00 70 1012.9
20260902231826 30 207 1.6 3.2 0.00 0.00 0.00 69 1012.8
20260902231321 30 220 0.0 4.8 0.00 0.00 0.00 70 1012.8
20260902230817 30 230 0.0 3.2 0.00 0.00 0.00 69 1012.8
20260902230315 31 217 1.6 6.4 0.00 0.00 0.00 69 1012.8
20260902225810 31 230 0.0 3.2 0.00 0.00 0.00 69 1012.6
20260902225300 31 153 1.6 4.8 0.00 0.00 0.00 67 1012.7
20260902224759 31 256 3.2 4.8 0.00 0.00 0.00 68 1012.8
20260902224254 31 187 0.0 3.2 0.00 0.00 0.00 67 1012.7
20260902223750 31 186 0.0 4.8 0.00 0.00 0.00 68 1012.8
20260902223249 31 199 0.0 4.8 0.00 0.00 0.00 68 1012.8
20260902222748 31 202 0.0 4.8 0.00 0.00 0.00 68 1012.9
20260902222243 31 225 1.6 4.8 0.00 0.00 0.00 67 1012.7
20260902221742 32 200 0.0 4.8 0.00 0.00 0.00 66 1012.8
20260902221242 32 245 0.0 9.7 0.00 0.00 0.00 65 1012.7
20260902220738 32 228 0.0 6.4 0.00 0.00 0.00 64 1012.8
20260902220237 32 233 0.0 4.8 0.00 0.00 0.00 65 1012.8
20260902215733 32 162 0.0 12.9 0.00 0.00 0.00 63 1012.6
20260902215228 32 222 1.6 6.4 0.00 0.00 0.00 62 1012.8
20260902214724 32 212 3.2 8.0 0.00 0.00 0.00 63 1012.7
20260902214222 32 226 3.2 4.8 0.00 0.00 0.00 62 1012.8
20260902213718 32 223 3.2 6.4 0.00 0.00 0.00 61 1012.7
20260902213218 32 216 4.8 17.7 0.00 0.00 0.00 60 1012.9
20260902212718 33 214 3.2 9.7 0.00 0.00 0.00 59 1012.8
20260902212215 33 220 3.2 11.3 0.00 0.00 0.00 58 1013.0
20260902211711 33 237 0.0 12.9 0.00 0.00 0.00 59 1013.0
20260902211206 33 209 6.4 9.7 0.00 0.00 0.00 61 1013.0
20260902210706 33 221 3.2 8.0 0.00 0.00 0.00 61 1013.0
20260902210201 33 240 3.2 8.0 0.00 0.00 0.00 62 1013.1
20260902205659 33 216 4.8 9.7 0.00 0.00 0.00 61 1013.0
20260902205155 33 246 4.8 11.3 0.00 0.00 0.00 60 1013.1
20260902204650 33 234 3.2 8.0 0.00 0.00 0.00 59 1013.2
20260902204149 33 65 4.8 14.5 0.00 0.00 0.00 59 1013.3
20260902203646 33 216 0.0 6.4 0.00 0.00 0.00 59 1013.3
20260902203146 33 214 4.8 8.0 0.00 0.00 0.00 59 1013.2
20260902202641 33 216 0.0 6.4 0.00 0.00 0.00 59 1013.6
20260902202137 33 243 6.4 8.0 0.00 0.00 0.00 59 1013.5
20260902201633 33 146 3.2 9.7 0.00 0.00 0.00 60 1013.6
20260902201132 33 263 6.4 12.9 0.00 0.00 0.00 59 1013.5
20260902200627 33 220 1.6 8.0 0.00 0.00 0.00 60 1013.6
20260902200124 33 242 3.2 11.3 0.00 0.00 0.00 62 1013.7
20260902195619 33 222 3.2 4.8 0.00 0.00 0.00 61 1013.8
20260902195118 33 229 6.4 11.3 0.00 0.00 0.00 60 1013.9
20260902194617 33 121 4.8 6.4 0.00 0.00 0.00 63 1013.8
20260902194113 33 205 4.8 4.8 0.00 0.00 0.00 62 1013.9
20260902193609 33 214 4.8 6.4 0.00 0.00 0.00 63 1014.0
20260902193108 33 205 4.8 8.0 0.00 0.00 0.00 63 1013.9
20260902192607 33 208 3.2 4.8 0.00 0.00 0.00 64 1014.1
20260902192101 33 224 4.8 6.4 0.00 0.00 0.00 63 1013.9
20260902191556 33 233 3.2 8.0 0.00 0.00 0.00 65 1013.9
20260902191055 33 184 3.2 6.4 0.00 0.00 0.00 65 1014.1
20260902190551 34 170 4.8 8.0 0.00 0.00 0.00 62 1014.2
20260902190046 34 233 3.2 6.4 0.00 0.00 0.00 63 1014.2
20260902185542 34 219 3.2 11.3 0.00 0.00 0.00 61 1014.2
20260902185038 34 222 3.2 6.4 0.00 0.00 0.00 61 1014.3
20260902184532 34 171 3.2 9.7 0.00 0.00 0.00 63 1014.1
20260902184028 34 215 1.6 8.0 0.00 0.00 0.00 58 1014.4
20260902183524 33 255 3.2 9.7 0.00 0.00 0.00 62 1014.4
20260902183020 34 221 3.2 6.4 0.00 0.00 0.00 60 1014.5
20260902182516 34 228 4.8 9.7 0.00 0.00 0.00 61 1014.5
20260902182012 34 218 1.6 6.4 0.00 0.00 0.00 61 1014.7
20260902181508 33 330 3.2 4.8 0.00 0.00 0.00 65 1014.6
20260902181002 33 187 3.2 6.4 0.00 0.00 0.00 63 1014.7
20260902180502 33 214 3.2 4.8 0.00 0.00 0.00 62 1014.6
20260902175958 33 222 6.4 8.0 0.00 0.00 0.00 62 1014.7
20260902175458 33 321 0.0 6.4 0.00 0.00 0.00 64 1014.6
20260902174954 34 213 8.0 9.7 0.00 0.00 0.00 63 1015.0
20260902174451 33 207 4.8 8.0 0.00 0.00 0.00 64 1014.8
20260902173946 33 22 0.0 4.8 0.00 0.00 0.00 63 1014.8
20260902173445 33 210 1.6 4.8 0.00 0.00 0.00 64 1014.8
20260902172941 33 224 1.6 8.0 0.00 0.00 0.00 65 1015.0
20260902172440 33 224 0.0 4.8 0.00 0.00 0.00 59 1015.1
20260902171935 33 197 1.6 11.3 0.00 0.00 0.00 59 1015.1
20260902171430 33 225 4.8 6.4 0.00 0.00 0.00 61 1015.3
20260902170927 33 238 3.2 6.4 0.00 0.00 0.00 60 1015.4
20260902170421 33 225 1.6 4.8 0.00 0.00 0.00 59 1015.4
20260902165917 32 196 0.0 8.0 0.00 0.00 0.00 62 1015.5
20260902165416 32 285 1.6 4.8 0.00 0.00 0.00 61 1015.6
20260902164911 33 234 1.6 4.8 0.00 0.00 0.00 58 1015.4
20260902164406 33 198 1.6 6.4 0.00 0.00 0.00 60 1015.6
20260902163906 33 227 4.8 9.7 0.00 0.00 0.00 60 1015.5
20260902163400 32 175 0.0 6.4 0.00 0.00 0.00 66 1015.5
20260902162858 33 234 4.8 9.7 0.00 0.00 0.00 59 1015.5
20260902162354 33 220 3.2 4.8 0.00 0.00 0.00 61 1015.4
20260902161854 33 215 3.2 6.4 0.00 0.00 0.00 57 1015.5
20260902161349 33 220 1.6 8.0 0.00 0.00 0.00 61 1015.5
20260902160845 33 225 0.0 4.8 0.00 0.00 0.00 65 1015.6
20260902160341 33 201 1.6 3.2 0.00 0.00 0.00 63 1015.7
20260902155838 33 141 0.0 4.8 0.00 0.00 0.00 66 1015.7
20260902155337 32 221 0.0 8.0 0.00 0.00 0.00 67 1015.6
20260902154832 32 229 3.2 6.4 0.00 0.00 0.00 64 1015.7
20260902154329 32 281 0.0 6.4 0.00 0.00 0.00 64 1015.7
20260902153827 32 129 0.0 6.4 0.00 0.00 0.00 68 1015.8
20260902153326 32 166 0.0 4.8 0.00 0.00 0.00 68 1015.7
20260902152823 32 208 0.0 4.8 0.00 0.00 0.00 66 1015.9
20260902152318 32 226 0.0 8.0 0.00 0.00 0.00 68 1015.8
20260902151814 32 246 4.8 6.4 0.00 0.00 0.00 67 1015.8
20260902151309 31 343 0.0 8.0 0.00 0.00 0.00 68 1015.8
20260902150803 31 180 0.0 9.7 0.00 0.00 0.00 71 1015.6
20260902150300 31 252 1.6 3.2 0.00 0.00 0.00 73 1015.8
20260902145759 31 154 1.6 4.8 0.00 0.00 0.00 72 1015.8
20260902145254 31 212 1.6 4.8 0.00 0.00 0.00 74 1015.7
20260902144749 31 225 3.2 4.8 0.00 0.00 0.00 72 1015.8
20260902144245 30 116 0.0 3.2 0.00 0.00 0.00 73 1015.9
20260902143740 30 224 0.0 3.2 0.00 0.00 0.00 75 1015.8
20260902143235 30 247 1.6 4.8 0.00 0.00 0.00 77 1015.7
20260902142731 29 211 0.0 4.8 0.00 0.00 0.00 79 1015.7
20260902142227 28 224 0.0 4.8 0.00 0.00 0.00 80 1015.7
20260902141721 28 216 3.2 4.8 0.00 0.00 0.00 81 1015.8
20260902141217 28 138 4.8 4.8 0.00 0.00 0.00 80 1015.8
20260902140712 28 212 3.2 8.0 0.00 0.00 0.00 79 1015.7
20260902140212 28 224 1.6 4.8 0.00 0.00 0.00 81 1015.6
20260902135711 28 15 0.0 4.8 0.00 0.00 0.00 81 1015.6
20260902135208 27 242 0.0 8.0 0.00 0.00 0.00 82 1015.5
20260902134707 27 134 14.5 14.5 0.00 0.00 0.00 81 1015.4
20260902134202 27 199 1.6 6.4 0.00 0.00 0.00 82 1015.3
20260902133657 27 245 0.0 3.2 0.00 0.00 0.00 83 1015.3
20260902133157 27 147 0.0 4.8 0.00 0.00 0.00 83 1015.3
20260902132652 27 124 0.0 4.8 0.00 0.00 0.00 83 1015.3
20260902132147 27 149 4.8 6.4 0.00 0.00 0.00 83 1015.3
20260902131643 27 164 0.0 3.2 0.00 0.00 0.00 84 1015.4
20260902131138 27 211 3.2 4.8 0.00 0.00 0.00 85 1015.3
20260902130634 27 236 3.2 3.2 0.00 0.00 0.00 85 1015.3
20260902130129 27 124 0.0 3.2 0.00 0.00 0.00 86 1015.3
20260902125625 26 220 0.0 3.2 0.00 0.00 0.00 86 1015.3
20260902125120 26 246 0.0 3.2 0.00 0.00 0.00 86 1015.3
20260902124617 26 238 1.6 4.8 0.00 0.00 0.00 87 1015.4
20260902124117 26 256 0.0 4.8 0.00 0.00 0.00 87 1015.5
20260902123613 26 256 0.0 1.6 0.00 0.00 0.00 88 1015.4
20260902123107 26 255 0.0 3.2 0.00 0.00 0.00 88 1015.3
20260902122606 25 209 1.6 8.0 0.00 0.00 0.00 88 1015.2
20260902122103 25 229 1.6 4.8 0.00 0.00 0.00 89 1015.2
20260902121602 25 206 1.6 4.8 0.00 0.00 0.00 89 1015.6
20260902121057 25 224 0.0 4.8 0.00 0.00 0.00 90 1015.4
20260902120553 25 206 3.2 4.8 0.00 0.00 0.00 91 1015.3
20260902120049 25 233 0.0 3.2 0.00 0.00 0.00 91 1015.2
20260902115544 25 274 1.6 4.8 0.00 0.00 0.00 92 1015.2
20260902115041 24 293 0.0 3.2 0.00 0.00 0.00 92 1015.3
20260902114536 24 280 1.6 3.2 0.00 0.00 0.00 93 1015.3
20260902114036 24 351 0.0 1.6 0.00 0.00 0.00 93 1015.2
20260902113532 24 249 0.0 3.2 0.00 0.00 0.00 93 1015.2
20260902113027 24 166 0.0 4.8 0.00 0.00 0.00 94 1015.0
20260902112522 23 255 0.0 3.2 0.00 0.00 0.00 94 1015.1
20260902112019 23 166 0.0 1.6 0.00 0.00 0.00 94 1014.9
20260902111515 23 213 1.6 3.2 0.00 0.00 0.00 94 1014.8
20260902111010 23 205 0.0 0.0 0.00 0.00 0.00 94 1014.8
20260902110506 23 228 0.0 3.2 0.00 0.00 0.00 94 1014.9
20260902110001 23 269 0.0 0.0 0.00 0.00 0.00 94 1014.7
20260902105451 23 168 0.0 3.2 0.00 0.00 0.00 94 1014.6
20260902104950 23 232 0.0 4.8 0.00 0.00 0.00 94 1014.7
20260902104446 23 356 0.0 3.2 0.00 0.00 0.00 94 1014.6
20260902103946 23 211 1.6 3.2 0.00 0.00 0.00 94 1014.6
20260902103442 23 150 1.6 4.8 0.00 0.00 0.00 94 1014.7
20260902102937 23 216 1.6 1.6 0.00 0.00 0.00 94 1014.6
20260902102434 23 214 1.6 4.8 0.00 0.00 0.00 95 1014.5
20260902101930 23 224 0.0 4.8 0.00 0.00 0.00 95 1014.5
20260902101430 23 218 0.0 3.2 0.00 0.00 0.00 95 1014.7
20260902100929 23 202 0.0 4.8 0.00 0.00 0.00 95 1014.6
20260902100424 23 177 0.0 6.4 0.00 0.00 0.00 95 1014.6
20260902095919 23 199 1.6 3.2 0.00 0.00 0.00 95 1014.7
20260902095419 23 205 0.0 3.2 0.00 0.00 0.00 95 1014.7
20260902094918 23 216 0.0 3.2 0.00 0.00 0.00 95 1014.6
20260902094414 23 220 1.6 4.8 0.00 0.00 0.00 95 1014.7
20260902093914 23 309 0.0 1.6 0.00 0.00 0.00 95 1014.6
20260902093409 23 229 0.0 3.2 0.00 0.00 0.00 95 1014.5
20260902092908 23 195 0.0 3.2 0.00 0.00 0.00 95 1014.7
20260902092404 23 172 0.0 3.2 0.00 0.00 0.00 95 1014.8
20260902091904 23 221 1.6 4.8 0.00 0.00 0.00 95 1014.6
20260902091359 23 168 1.6 3.2 0.00 0.00 0.00 95 1014.8
20260902090856 23 245 0.0 3.2 0.00 0.00 0.00 95 1014.7
20260902090356 23 260 0.0 1.6 0.00 0.00 0.00 95 1014.8
20260902085855 23 230 0.0 3.2 0.00 0.00 0.00 95 1014.6
20260902085350 23 193 3.2 4.8 0.00 0.00 0.00 95 1014.8
20260902084845 23 142 0.0 4.8 0.00 0.00 0.00 95 1014.8
20260902084342 23 221 1.6 3.2 0.00 0.00 0.00 95 1014.9
20260902083837 23 229 0.0 3.2 0.00 0.00 0.00 95 1015.0
20260902083337 23 229 0.0 3.2 0.00 0.00 0.00 95 1014.9
20260902082832 23 230 0.0 4.8 0.00 0.00 0.00 95 1015.0
20260902082329 23 195 0.0 3.2 0.00 0.00 0.00 95 1014.8
20260902081825 23 223 1.6 3.2 0.00 0.00 0.00 95 1014.8
20260902081320 23 76 0.0 0.0 0.00 0.00 0.00 95 1014.8
20260902080815 23 242 0.0 3.2 0.00 0.00 0.00 95 1014.8
20260902080312 23 224 0.0 1.6 0.00 0.00 0.00 95 1014.8
20260902075811 23 242 0.0 1.6 0.00 0.00 0.00 95 1014.6
20260902075307 23 202 0.0 0.0 0.00 0.00 0.00 95 1014.5
20260902074808 23 230 0.0 3.2 0.00 0.00 0.00 95 1014.5
20260902074303 23 185 0.0 1.6 0.00 0.00 0.00 95 1014.5
20260902073758 23 167 0.0 4.8 0.00 0.00 0.00 95 1014.5